{"data":{"norad_id":57330,"intl_designator":"2023-099C","name":"STARLINK-6212","alt_names":[],"object_type":"PAYLOAD","status":"ACTIVE","operator":null,"country":"US","launch_date":"2023-07-16","launch_site_code":"AFETR","launch_vehicle":null,"mission":null,"orbit_class":"UNKNOWN","rcs_meters":null,"size_class":null,"mass_kg":null,"dimensions":null,"purposes":["comms"],"wikipedia_slug":null,"has_3d_model":false,"image_url":null,"decayed_at":null,"tle_current":{"epoch":"2026-05-24T20:01:00.987744Z","epoch_age_seconds":89722,"freshness":"FRESH","line1":"1 57330U 23099C   26144.83403921 -.00000187  00000+0  27497-5 0  9998","line2":"2 57330  43.0032 182.2147 0001884 279.1512  80.9126 15.27580879157725","mean_motion":15.27580879,"eccentricity":0.0001884,"inclination_deg":43.0032,"raan_deg":182.2147,"arg_perigee_deg":279.1512,"mean_anomaly_deg":80.9126,"bstar":2.7497e-6,"rev_number":15772,"period_min":94.266694470715,"perigee_km":481.75381703408,"apogee_km":484.33911096332,"semimajor_km":6861.1834639987,"source":"CELESTRAK","updated_at":"2026-05-25T13:38:18.285626Z"}}}